This is the latest recevied weather packets stored in our database for station/object SAVIL. If no packets are shown the sender has not sent any weather packets the latest 10 day(s).
| Time | Temp. | Humidity | Pressure | Rain* | Wind** | Luminosity | Snow |
|---|---|---|---|---|---|---|---|
| 1777786023 | 7.78° C | 66% | 1004.4 hPa | 0 mm | - | - | - |
| 1777784823 | 7.78° C | 67% | 1004.4 hPa | 0 mm | - | - | - |
| 1777783622 | 7.78° C | 69% | 1004.3 hPa | 0 mm | - | - | - |
| 1777782423 | 7.78° C | 64% | 1004.3 hPa | 0 mm | - | - | - |
| 1777781222 | 8.33° C | 62% | 1004.3 hPa | 0 mm | - | - | - |
| 1777780022 | 8.89° C | 57% | 1004.2 hPa | 0 mm | - | - | - |
| 1777778822 | 9.44° C | 51% | 1004 hPa | 0 mm | - | - | - |
| 1777777622 | 9.44° C | 56% | 1003.8 hPa | 0 mm | - | - | - |
| 1777776422 | 10° C | 54% | 1003.6 hPa | 0 mm | - | - | - |
| 1777775222 | 10° C | 60% | 1003.4 hPa | 0 mm | - | - | - |
| 1777774022 | 10.56° C | 60% | 1003.4 hPa | 0 mm | - | - | - |
| 1777772822 | 11.11° C | 59% | 1003.3 hPa | 0 mm | - | - | - |
| 1777771622 | 11.11° C | 57% | 1003.1 hPa | 0 mm | - | - | - |
| 1777770422 | 11.67° C | 55% | 1003.1 hPa | 0 mm | - | - | - |
| 1777769222 | 11.67° C | 54% | 1002.9 hPa | 0 mm | - | - | - |
| 1777768022 | 11.67° C | 53% | 1003 hPa | 0 mm | - | - | - |
| 1777766821 | 12.22° C | 53% | 1003 hPa | 0 mm | - | - | - |
| 1777765621 | 12.22° C | 52% | 1003 hPa | 0 mm | - | - | - |
| 1777764421 | 12.22° C | 51% | 1003 hPa | 0 mm | - | - | - |
| 1777763221 | 12.22° C | 51% | 1002.9 hPa | 0 mm | - | - | - |
| 1777762021 | 12.22° C | 51% | 1003 hPa | 0 mm | - | - | - |
| 1777760821 | 12.78° C | 49% | 1003.2 hPa | 0 mm | - | - | - |
| 1777759621 | 12.78° C | 50% | 1003.3 hPa | 0 mm | - | - | - |
| 1777758421 | 12.78° C | 48% | 1003.5 hPa | 0 mm | - | - | - |
| 1777757221 | 12.78° C | 48% | 1003.5 hPa | 0 mm | - | - | - |
* Rain latest hour (hover to see other rain measurements)
** Current wind speed in m/s (hover to see current wind gust speed)